COSMOS 2251 DEB, 35441

Orbit data source: Space-Track

COSMOS 2251 DEB, 35441 is space debris in LEO originally from a launch on Wed, 16 Jun 1993 UTC launched from the Plesetsk Missile And Space Complex (PKMTR). The debris from Iridium 33, an American commercial communications satellite, has been tracked extensively since its accidental collision with the defunct Russian satellite Cosmos 2251 in 2009. This event, occurring at high speed in low Earth orbit (LEO), generated thousands of pieces of space debris, significantly increasing the risk of further collisions. The Iridium 33 debris cloud has impacted space traffic management and orbital debris mitigation strategies, making it a subject of ongoing study in space situational awareness.

Loading next visibility...
Identifier
35441, 1993-036AKK
Orbit
LEO
Country
Flag of CISCIS
Related business
Manufacturer
Unknown
Mission
Spacecraft
Bus & Motor
Unknown
Mass
Unknown
Launch date (UTC)
1993-06-16 (33 years ago)
Launch vehicle
Unknown
Launch site
Plesetsk Missile And Space Complex (PKMTR)
Object type
Payload
Rocket body
Debris
Shape & HBR
Unknown shape, 0.1 m
Radar Cross Section
Small (<0.1 m²)

Expand to show TLE details & history
Last TLE update: 5 days ago

TLE from 5 days ago
0 COSMOS 2251 DEB
1 35441U 93036AKK 26030.22636548  .00011181  00000-0  21392-2 0  9996
2 35441  74.1327 205.6878 0035349  83.2038 277.3150 14.63517208881398
Epoch: 2026-01-30T05:25Z
TLE epoch observation values (Epoch: 2026-01-30T05:25:57.977Z)
Latitude
-0.00005°
Longitude
-5.27153°
Altitude
681.399 km
Speed
7.518 km/s
True Right ascension
13h 42m 45s
True Declination
0° 00' 00"
Sunlit
Object was in daylight at epoch
Visualization orbit readout
Latitude
Unknown
Longitude
Unknown
Altitude
Unknown
Speed
Unknown
Apparent Right ascension
Unknown
Apparent Declination
Unknown
Sunlit
N/A
Visualization observer readout
Local Sidereal Time
13:58:57
Azimuth
Unknown
Elevation
Unknown
Doppler factor
Unknown
Orbital elements
Apogee altitude
704.373 km
Perigee altitude
654.478 km
Semi-major axis
7,057.562 km
Eccentricity
0.00353
Inclination
74.1327°
RAAN
205.6878°
Arg. of periapsis
83.2038°
True anomaly
276.913°
Mean anomaly
277.315°
Eccentric anomaly
277.11402°
Mean motion
3.66067 °/min
Orbital period
98.34 mins
BSTAR
0.0021392
Loading maneuver chart data...
Computing Atmospheric mass density...

Documentation

Showing up to 5 results
|